Chillicothe, MO

8:50 AM CDT on October 23, 2019 (GMT -0500)
Chillicothe

Weather History for KCDJ - August, 2019

Change the Weather History Date:

Saturday, August 17, 2019

  Actual Average (WUND) Record (WUND)
Temperature  
Mean Temperature 75 °F -  
Max Temperature 82 °F - - (-1)
Min Temperature 68 °F - - (-1)
Cooling Degree Days 10    
Growing Degree Days 25 (Base 50)    
Moisture  
Dew Point 70 °F    
Average Humidity 84    
Maximum Humidity 96    
Minimum Humidity 69    
Precipitation  
Precipitation 1.28 in - - ()
Sea Level Pressure  
Sea Level Pressure 29.83 in    
Wind  
Wind Speed 5 mph (SE)    
Max Wind Speed 14 mph    
Max Gust Speed 30 mph    
Averages and records for this station are not official NWS values.
T = Trace of Precipitation, MM = Missing Value Source: NWS Daily Summary

Daily Weather History Graph

Daily Weather History Graph

Search for Another Location

Airport or City:

Astronomy

Aug. 17, 2019 Rise Set
Actual Time 6:27 AM CDT 8:08 PM CDT
Civil Twilight 5:59 AM CDT 8:36 PM CDT
Nautical Twilight 5:24 AM CDT 9:11 PM CDT
Astronomical Twilight 4:47 AM CDT 9:48 PM CDT
Moon 9:36 PM CDT (8/17) 8:17 AM CDT (8/17)
Length of Visible Light 14h 37m
Length of Day
13h 40m
Waning Gibbous, 96% of the Moon is Illuminated
Aug 17
Waning Gibbous
Aug 23
Last Quarter
Aug 30
New
Sep 5
First Quarter
Sep 13
Full

Hourly Weather History & Observations

Time (CDT) Temp. Heat Index Dew Point Humidity Pressure Visibility Wind Dir Wind Speed Gust Speed Precip Events Conditions
12:52 AM 73.0 °F - 68.0 °F 84% 29.83 in - SE 3.5 mph - N/A   Unknown
1:52 AM 72.0 °F - 68.0 °F 87% 29.81 in - ESE 3.5 mph - N/A   Unknown
2:52 AM 73.0 °F - 68.0 °F 84% 29.80 in - SSE 3.5 mph - N/A   Unknown
3:24 AM 69.1 °F - 68.0 °F 96% 29.92 in - SSW 13.8 mph 29.9 mph 0.46 in   Unknown
3:52 AM 70.0 °F - 68.0 °F 93% 29.85 in - South 11.5 mph 20.7 mph 0.77 in   Unknown
4:52 AM 70.0 °F - 68.0 °F 93% 29.92 in - Calm Calm - 0.16 in   Unknown
5:52 AM 70.0 °F - 68.0 °F 93% 29.98 in - Variable 6.9 mph - 0.16 in   Unknown
6:52 AM 68.0 °F - 66.9 °F 96% 29.88 in - NNE 6.9 mph - 0.19 in   Unknown
8:52 AM 69.1 °F - 64.9 °F 87% 29.75 in - SSE 4.6 mph - N/A   Unknown
9:52 AM 71.1 °F - 66.0 °F 84% 29.82 in - Calm Calm - N/A   Unknown
10:52 AM 75.0 °F - 66.0 °F 73% 29.87 in - Variable 3.5 mph - N/A   Unknown
12:52 PM 78.1 °F - 69.1 °F 74% 29.85 in - Variable 5.8 mph - N/A   Unknown
1:52 PM 80.1 °F 83.2 °F 70.0 °F 71% 29.83 in - Variable 6.9 mph - N/A   Unknown
2:52 PM 82.0 °F 87.4 °F 73.0 °F 74% 29.81 in - ESE 4.6 mph - N/A   Unknown
3:52 PM 82.0 °F 86.7 °F 72.0 °F 71% 29.80 in - Variable 4.6 mph - N/A   Unknown
4:52 PM 82.9 °F 88.0 °F 72.0 °F 69% 29.79 in - SSE 6.9 mph - N/A   Unknown
6:52 PM 81.0 °F 85.2 °F 72.0 °F 74% 29.78 in - SSE 5.8 mph - N/A   Unknown
7:52 PM 79.0 °F - 73.0 °F 82% 29.78 in - ESE 3.5 mph - N/A   Unknown
8:52 PM 77.0 °F - 73.0 °F 88% 29.78 in - SSE 3.5 mph - N/A   Unknown
9:52 PM 77.0 °F - 73.0 °F 88% 29.78 in - SE 5.8 mph - N/A   Unknown
10:52 PM 75.9 °F - 73.0 °F 91% 29.78 in - SSE 3.5 mph - N/A   Unknown
11:52 PM 75.9 °F - 73.0 °F 91% 29.78 in - SE 3.5 mph - N/A   Unknown